Regional Weather Roundup
Issued by NWS

Home | Current Version | Previous Version | Graphics & Text | Print | Product List | Glossary On
Versions: 1 2 3 4 5 6 7 8 9 10 11 12 13 14 15 16 17 18 19 20 21 22 23 24 25 26 27 28 29 30 31 32 33 34 35 36 37 38 39 40 41 42 43 44 45 46 47 48 49 50
000
ASUS45 KTFX 301819
RWRMT
MONTANA HOURLY WEATHER ROUNDUP
NATIONAL WEATHER SERVICE GREAT FALLS MT
1219 PM MDT WED JUL 30 2014

NOTE: "FAIR" INDICATES FEW OR NO CLOUDS BELOW 12000 FEET WITH NO
SIGNIFICANT WEATHER AND/OR OBSTRUCTIONS TO VISIBILITY.

* THESE STATIONS ARE NOT UNDER NWS QUALITY CONTROL. THEY DO NOT
   REPORT WEATHER SUCH AS PRECIPITATION OR FOG.

MTZ001>007-043-301900-
WEST OF THE DIVIDE
CITY           SKY/WX    TMP DP  RH WIND       PRES   REMARKS
KALISPELL      SUNNY     81  52  37 VRB3      30.11F
MISSOULA       SUNNY     82  45  27 CALM      30.14F
BUTTE          SUNNY     81  45  28 SE8       30.29F
MULLAN PASS    PTCLDY    73  45  37 CALM      30.32R
* LINCOLN      N/A       78  51  39 NW3        N/A
* LOOKOUT PASS N/A       80  47  31 N4         N/A
* POLSON       N/A       87  54  32 SW2G7      N/A
* RONAN APT    SUNNY     82  52  35 N/A        N/A
* SEELEY LAKE  N/A       82  47  29 W3         N/A
* THOMP F APT  PTCLDY    75  40  28 NE5G12     N/A
* YAAK HILL    N/A       81  51  35 SE2        N/A
$$

MTZ008-052>055-301900-
SOUTHWEST MONTANA
CITY           SKY/WX    TMP DP  RH WIND       PRES   REMARKS
BOZEMAN        PTCLDY    81  50  34 CALM      30.23F
DILLON         PTCLDY    73  48  41 SW3       30.27F
W YELLOWSTONE  PTCLDY    68  45  44 NE3       30.39F
* THREE FORKS  PTCLDY    81  63  54 N/A        N/A   HI  82
* BOULDER HILL N/A       77  47  35 S9G15      N/A
* MONIDA PASS  N/A       70  39  32 NE6        N/A
* RAYNOLDS PAS N/A       71  51  49 S5G10      N/A
* WHITEHALL    N/A       80  51  36 SW4        N/A
* WISE RIVER   N/A       76  49  39 NW4        N/A
$$

MTZ009>010-012-014-046-048-049-054-301900-
EAST SLOPES AND CENTRAL MONTANA
CITY           SKY/WX    TMP DP  RH WIND       PRES   REMARKS
CUT BANK       SUNNY     86  46  25 S9        30.16S
GREAT FALLS    SUNNY     90  39  17 SE7       30.15F
HELENA         SUNNY     84  52  33 N5        30.18F
MALMSTROM AFB  SUNNY     88  37  16 SE6       30.16F
* CONRAD       SUNNY     84  55  37 E7         N/A
* DEARBORN     N/A       87  45  23 SW7G12     N/A
* EAST GLACIER N/A       85  44  24 SW1G6      N/A
* MONARCH      N/A       80  41  25 NE5        N/A
* ROGERS PASS  N/A       79  40  25 SE9        N/A
* SAINT MARY   N/A       84  51  32 W3         N/A
* SWEET GRASS  N/A       84  45  26 S15G20     N/A
* WHITE SULPH  N/A       81  36  20 S11G18     N/A
$$

MTZ011-013-016-021-035-040-045-047-050-051-301900-
NORTH CENTRAL MONTANA
CITY           SKY/WX    TMP DP  RH WIND       PRES   REMARKS
HAVRE          SUNNY     93  45  19 SW9       30.10F
LEWISTOWN      SUNNY     86  37  17 S10       30.22F
* CHINOOK      SUNNY     91  50  25 CALM      30.10F
* FORT BENTON  SUNNY     91  36  14 E7        30.11F
* CHESTER      N/A       88  46  23 S3G9       N/A
* DENTON       N/A       87  46  24 S9G20      N/A
* GEYSER       N/A       89  45  22 SE2G12     N/A
* JUDITH GAP   N/A       80  48  33 S14        N/A
* LOMA         N/A       91  37  15 E9G17      N/A
$$

MTZ017>020-022>027-061-062-301900-
NORTHEAST MONTANA
CITY           SKY/WX    TMP DP  RH WIND       PRES   REMARKS
GLASGOW        SUNNY     86  48  27 S10       30.15F
GLENDIVE       SUNNY     81  52  37 NW5       30.19F
JORDAN         SUNNY     88  43  21 VRB7      30.16F
SIDNEY         SUNNY     81  54  39 SE5       30.18F
WOLF POINT     SUNNY     84  48  29 VRB3      30.16F
* BEAVER HILL  N/A       77  50  39 NW2G12     N/A
* CIRCLE       N/A       84  52  33 N/A        N/A
* LINDSAY DVD  N/A       79  52  39 SE6        N/A
$$

MTZ028>042-056>058-301900-
SOUTHCENTRAL AND SOUTHEAST MONTANA
CITY           SKY/WX    TMP DP  RH WIND       PRES   REMARKS
BAKER          SUNNY     81  50  34 VRB3      30.21F
BILLINGS       PTCLDY    81  48  32 CALM      30.23F
LIVINGSTON     PTCLDY    82  46  28 E13       30.25F
MILES CITY     SUNNY     82  46  28 E5        30.19F
* LAUREL APT   PTCLDY    81  48  32 N/A        N/A
* ROUNDUP APT  SUNNY     84  45  26 S7         N/A
* ALZADA       N/A       79  40  25 N3G9       N/A
* HYSHAM       N/A       87  48  26 NE4        N/A
* LAME DEER    N/A       77  40  27 NE7G12     N/A
* REED POINT   N/A       81  49  33 NE8        N/A
* ROSCOE HILL  N/A       77  37  24 E20G29     N/A
$$

REGIONAL REPORTS...DAKOTAS
CITY           SKY/WX    TMP DP  RH WIND       PRES   REMARKS
WILLISTON      SUNNY     81  50  34 N13       30.18F
DICKINSON      PTCLDY    79  54  42 NW6       30.17F
CROSBY         SUNNY     73  55  53 NE3       30.19F
TIOGA          SUNNY     73  55  53 N8        30.21F
WATFORD CITY   SUNNY     79  54  42 N6        30.16S
BISMARCK       SUNNY     79  55  44 N7        30.15F
GRAND FORKS    SUNNY     79  57  47 N7        30.09F
FARGO          SUNNY     79  52  39 W7        30.11F
BUFFALO SD     SUNNY     79  48  34 N12       30.14F
RAPID CITY     PTCLDY    81  55  41 VRB5      30.19F HI  81
$$

REGIONAL REPORTS...WYOMING/IDAHO/WASHINGTON
CITY           SKY/WX    TMP DP  RH WIND       PRES   REMARKS
GILLETTE       PTCLDY    79  43  28 NE9       30.27S
SHERIDAN       PTCLDY    82  41  23 VRB6      30.26F
YELLOWSTONE LA PTCLDY    64  36  35 SE3       30.48F
SALMON         PTCLDY    79  52  39 CALM      30.16F
MULLAN PASS    PTCLDY    73  45  37 CALM      30.32S
SAND POINT     SUNNY     81  54  39 CALM      30.07F
SPOKANE        PTCLDY    88  45  22 SW5       30.07S
$$

REGIONAL REPORTS...ALBERTA
CITY           SKY/WX    TMP DP  RH WIND       PRES   REMARKS
CALGARY        PTCLDY    84  50  31 VRB9      30.11F
LETHBRIDGE     PTCLDY    84  55  37 SW7       30.09F
MEDICINE HAT   PTSUNNY   90  50  25 SW10      30.06F
EDMONTON       SUNNY     81  64  56 N5        30.06S HI  83
WATERTON GATE  N/A       88  46  23 SE3        N/A
CARDSTON       N/A       86  55  35 SE3        N/A
$$

REGIONAL REPORTS...SASKATCHEWAN
CITY           SKY/WX    TMP DP  RH WIND       PRES   REMARKS
SWIFT CURRENT  SUNNY     84  54  36 S12       30.11F
MOOSE JAW      LGT RAIN  77  63  62 SE3       30.17S
REGINA         PTSUNNY   75  57  54 SW9       30.17F
VAL MARIE      N/A       86  50  29 S14        N/A
ASSINIBOIA     N/A       79  55  44 E7         N/A
CORONACH       N/A       79  54  42 SE3        N/A

$$




USA.gov is the U.S. government's official web portal to all federal, state and local government web resources and services.